KF5FGL Weather Reports


Display with metric or nautical units.
time (UTC)temp
F
wind
direction
speed
MPH
gust
MPH
rain 1hr
in
rain 24hr
in
rain mn
in
humidity
%
barometer
mb
20260507113019 62 35 8.0 15.0 0.00 0.00 0.00 83 1013.8
20260507111503 63 27 3.0 13.0 0.00 0.00 0.00 83 1013.7
20260507110022 63 33 5.0 11.0 0.00 0.00 0.00 83 1013.7
20260507104509 63 20 6.0 13.0 0.00 0.00 0.00 82 1013.8
20260507103034 63 351 3.0 12.0 0.00 0.00 0.00 82 1013.5
20260507101517 63 18 5.0 12.0 0.00 0.00 0.00 82 1013.4
20260507100008 63 1 5.0 13.0 0.00 0.00 0.00 82 1013.4
20260507094524 63 61 4.0 11.0 0.00 0.00 0.00 82 1013.4
20260507093016 63 20 1.0 10.0 0.00 0.00 0.00 83 1013.6
20260507091538 63 22 3.0 10.0 0.00 0.00 0.00 82 1013.6
20260507090019 63 10 2.0 8.0 0.00 0.00 0.00 83 1013.7
20260507084531 63 2 2.0 11.0 0.00 0.00 0.00 83 1013.3
20260507083027 63 356 5.0 11.0 0.00 0.00 0.00 83 1013.3
20260507081515 63 351 6.0 12.0 0.00 0.00 0.00 83 1013.2
20260507080003 63 38 3.0 11.0 0.00 0.00 0.00 83 1013.1
20260507074522 63 15 3.0 8.0 0.00 0.00 0.00 83 1013.5
20260507073011 63 77 4.0 10.0 0.00 0.00 0.00 83 1013.6
20260507071531 63 20 2.0 10.0 0.00 0.00 0.00 84 1013.5
20260507070019 63 125 3.0 10.0 0.00 0.00 0.00 84 1013.4
20260507064508 64 76 4.0 8.0 0.00 0.00 0.00 83 1013.6
20260507063027 64 3 4.0 12.0 0.00 0.00 0.00 83 1013.5
20260507061514 64 351 2.0 11.0 0.00 0.00 0.00 83 1013.4
20260507060105 64 19 5.0 13.0 0.00 0.00 0.00 83 1013.3
20260507054519 65 7 3.0 9.0 0.00 0.00 0.00 83 1013.2
20260507053007 64 41 4.0 9.0 0.00 0.00 0.00 84 1012.6
20260507051527 64 57 4.0 10.0 0.00 0.00 0.00 84 1012.9
20260507050034 64 36 4.0 11.0 0.00 0.00 0.00 84 1012.8
20260507044606 64 32 4.0 10.0 0.00 0.00 0.00 83 1013.0
20260507043019 65 31 4.0 12.0 0.00 0.00 0.00 83 1013.0
20260507041504 65 5 4.0 12.0 0.00 0.00 0.00 84 1012.5
20260507040021 65 356 4.0 10.0 0.00 0.00 0.00 83 1012.1
20260507034509 65 3 5.0 11.0 0.00 0.00 0.00 82 1011.9
20260507033030 65 16 4.0 11.0 0.00 0.00 0.00 83 1012.1
20260507031516 65 18 4.0 12.0 0.00 0.00 0.00 83 1012.0
20260507030004 65 61 4.0 12.0 0.00 0.00 0.00 82 1011.8
20260507024527 65 356 3.0 10.0 0.00 0.00 0.00 83 1011.6
20260507023011 65 10 3.0 13.0 0.00 0.00 0.00 83 1011.6
20260507021535 66 4 3.0 11.0 0.00 0.00 0.00 82 1011.2
20260507020020 65 79 5.0 11.0 0.00 0.00 0.00 82 1011.2
20260507014505 66 5 5.0 13.0 0.00 0.00 0.00 82 1010.6
20260507013023 66 20 4.0 17.0 0.00 0.00 0.00 81 1010.6
20260507011508 67 23 4.0 12.0 0.00 0.00 0.00 80 1010.2
20260507010032 67 346 6.0 13.0 0.00 0.00 0.00 80 1010.1
20260507004513 67 35 5.0 16.0 0.00 0.00 0.00 79 1009.6
20260507003027 68 3 4.0 16.0 0.00 0.00 0.00 79 1009.8
20260507001515 69 346 7.0 15.0 0.00 0.00 0.00 77 1009.6
20260507000036 72 74 6.0 13.0 0.00 0.00 0.00 75 1009.0
20260506234517 72 351 5.0 13.0 0.00 0.00 0.00 75 1008.9
20260506233003 73 47 4.0 17.0 0.00 0.00 0.00 74 1008.8
20260506231520 74 67 5.0 16.0 0.00 0.00 0.00 73 1008.6
20260506230008 76 321 6.0 17.0 0.00 0.00 0.00 72 1008.4
20260506224525 77 10 8.0 16.0 0.00 0.00 0.00 72 1008.1
20260506223015 78 351 6.0 14.0 0.00 0.00 0.00 71 1007.8
20260506221505 80 31 6.0 13.0 0.00 0.00 0.00 72 1007.5
20260506220024 80 11 4.0 14.0 0.00 0.00 0.00 73 1007.6
20260506214513 79 9 4.0 13.0 0.00 0.00 0.00 75 1007.6
20260506213002 81 4 4.0 12.0 0.00 0.00 0.00 74 1007.5
20260506211536 83 79 3.0 7.0 0.00 0.00 0.00 74 1007.2
20260506210017 84 89 2.0 10.0 0.00 0.00 0.00 73 1007.4
20260506204533 85 54 4.0 7.0 0.00 0.00 0.00 68 1007.2
20260506203016 85 92 1.0 6.0 0.00 0.00 0.00 67 1007.7
20260506201507 86 351 3.0 7.0 0.00 0.00 0.00 65 1007.9
20260506200029 88 108 1.0 6.0 0.00 0.00 0.00 64 1007.8
20260506194510 85 117 1.0 8.0 0.00 0.00 0.00 71 1007.8
20260506193100 84 84 0.0 6.0 0.00 0.00 0.00 74 1007.8
20260506191517 84 119 2.0 5.0 0.00 0.00 0.00 72 1008.1
20260506190007 83 67 2.0 5.0 0.00 0.00 0.00 74 1008.2
20260506184525 83 87 2.0 6.0 0.00 0.00 0.00 76 1008.3
20260506183011 83 134 2.0 8.0 0.00 0.00 0.00 77 1008.5
20260506181540 82 84 1.0 4.0 0.00 0.00 0.00 79 1008.8
20260506180016 81 88 1.0 7.0 0.00 0.00 0.00 81 1008.9
20260506174501 79 58 4.0 8.0 0.00 0.00 0.00 83 1009.0
20260506173028 79 79 2.0 7.0 0.00 0.00 0.00 84 1009.2
20260506171514 79 22 1.0 6.0 0.00 0.00 0.00 85 1009.3
20260506170031 78 31 1.0 7.0 0.00 0.00 0.00 85 1009.3
20260506164514 78 28 3.0 8.0 0.00 0.00 0.00 85 1009.3
20260506163004 78 32 2.0 6.0 0.00 0.00 0.00 86 1009.3
20260506161521 77 155 1.0 5.0 0.00 0.00 0.00 86 1009.4
20260506160010 76 64 0.0 3.0 0.00 0.00 0.00 86 1009.2
20260506154526 76 69 0.0 3.0 0.00 0.00 0.00 85 1009.0
20260506153017 75 58 1.0 4.0 0.00 0.00 0.00 85 1008.8
20260506151532 75 98 1.0 3.0 0.00 0.00 0.00 85 1008.6
20260506150020 75 42 1.0 2.0 0.00 0.00 0.00 85 1008.5
20260506144508 75 75 0.0 3.0 0.00 0.00 0.00 85 1008.5
20260506143029 75 112 0.0 3.0 0.00 0.00 0.00 86 1008.2
20260506141517 75 227 0.0 3.0 0.00 0.00 0.00 86 1007.9
20260506140010 75 141 0.0 3.0 0.00 0.00 0.00 85 1007.7
20260506134522 75 103 1.0 4.0 0.00 0.00 0.00 85 1007.4
20260506133008 74 133 2.0 5.0 0.00 0.00 0.00 85 1007.1
20260506131529 74 119 2.0 4.0 0.00 0.00 0.00 85 1007.1
20260506130021 74 195 1.0 4.0 0.00 0.00 0.00 85 1007.0
20260506124507 74 133 1.0 4.0 0.00 0.00 0.00 85 1007.1
20260506123025 74 130 0.0 4.0 0.00 0.00 0.00 86 1007.1
20260506121511 74 268 0.0 2.0 0.00 0.00 0.00 86 1006.9
20260506120029 74 187 0.0 4.0 0.00 0.00 0.00 86 1006.9
20260506114521 74 145 0.0 4.0 0.00 0.00 0.00 86 1006.8